QPF
0.04 0.03 0.03 0.03 0.03 0.04 0.05 0.05 0.04 0.03 0.02 0.01 0.01 0.00 0.00 0.01 0.01 0.00 0.01 0.02 0.02 0.02 0.04 0.04 0.03 0.03 0.03 0.02 0.01 0.01 0.01 0.01 0.01 0.01 0.01 0.02 0.02 0.02 0.03 0.04 0.06 0.08 0.07
0.03 0.04 0.04 0.04 0.04 0.04 0.04 0.05 0.05 0.04 0.03 0.02 0.01 0.00 0.00 0.01 0.01 0.00 0.00 0.02 0.02 0.02 0.03 0.05 0.04 0.03 0.03 0.03 0.02 0.02 0.02 0.02 0.02 0.02 0.02 0.02 0.02 0.02 0.03 0.04 0.05 0.05 0.08
0.03 0.03 0.04 0.04 0.04 0.04 0.05 0.06 0.05 0.06 0.05 0.03 0.02 0.01 0.01 0.01 0.01 0.00 0.01 0.02 0.02 0.02 0.02 0.04 0.05 0.04 0.03 0.02 0.02 0.02 0.02 0.03 0.03 0.03 0.03 0.03 0.03 0.03 0.03 0.03 0.04 0.04 0.05
0.04 0.04 0.05 0.06 0.05 0.04 0.06 0.07 0.06 0.07 0.06 0.04 0.03 0.02 0.02 0.02 0.01 0.01 0.01 0.03 0.03 0.03 0.02 0.02 0.05 0.05 0.03 0.01 0.02 0.02 0.02 0.03 0.03 0.04 0.04 0.05 0.03 0.03 0.03 0.03 0.03 0.03 0.03
0.04 0.04 0.04 0.06 0.07 0.07 0.06 0.07 0.07 0.06 0.05 0.04 0.03 0.02 0.02 0.01 0.01 0.01 0.01 0.03 0.04 0.03 0.03 0.02 0.04 0.05 0.02 0.02 0.02 0.02 0.02 0.02 0.03 0.03 0.04 0.05 0.04 0.03 0.03 0.03 0.03 0.03 0.03
0.05 0.05 0.05 0.05 0.08 0.10 0.09 0.09 0.10 0.10 0.08 0.06 0.05 0.03 0.02 0.01 0.01 0.01 0.01 0.03 0.03 0.03 0.03 0.02 0.02 0.04 0.02 0.02 0.02 0.02 0.02 0.02 0.02 0.03 0.03 0.04 0.05 0.04 0.04 0.04 0.05 0.04 0.04
0.04 0.04 0.04 0.04 0.06 0.09 0.11 0.10 0.09 0.10 0.10 0.08 0.07 0.05 0.02 0.01 0.02 0.02 0.02 0.03 0.03 0.03 0.03 0.03 0.02 0.03 0.02 0.01 0.01 0.01 0.02 0.02 0.02 0.03 0.03 0.04 0.05 0.05 0.04 0.04 0.04 0.05 0.05
0.04 0.04 0.03 0.04 0.05 0.07 0.10 0.11 0.12 0.13 0.10 0.08 0.07 0.06 0.04 0.03 0.03 0.03 0.03 0.04 0.04 0.04 0.04 0.04 0.03 0.02 0.01 0.01 0.01 0.01 0.02 0.03 0.02 0.02 0.02 0.03 0.05 0.05 0.04 0.05 0.05 0.05 0.05
0.06 0.05 0.05 0.05 0.06 0.08 0.09 0.11 0.12 0.14 0.14 0.11 0.08 0.07 0.07 0.06 0.04 0.04 0.05 0.04 0.04 0.04 0.04 0.04 0.03 0.02 0.01 0.01 0.01 0.01 0.01 0.04 0.03 0.02 0.02 0.02 0.04 0.04 0.04 0.04 0.04 0.05 0.05
0.06 0.06 0.06 0.06 0.07 0.08 0.09 0.09 0.10 0.12 0.14 0.15 0.12 0.09 0.07 0.06 0.04 0.04 0.05 0.04 0.03 0.04 0.04 0.04 0.03 0.02 0.01 0.00 0.01 0.01 0.02 0.04 0.03 0.03 0.02 0.02 0.02 0.03 0.04 0.04 0.04 0.05 0.05
0.09 0.08 0.08 0.07 0.08 0.09 0.09 0.09 0.10 0.12 0.13 0.14 0.12 0.09 0.07 0.06 0.05 0.05 0.07 0.06 0.05 0.05 0.04 0.04 0.03 0.02 0.01 0.00 0.01 0.01 0.02 0.04 0.04 0.02 0.01 0.01 0.02 0.02 0.03 0.03 0.04 0.04 0.04
0.11 0.09 0.08 0.08 0.08 0.09 0.09 0.10 0.12 0.13 0.13 0.13 0.12 0.10 0.08 0.07 0.06 0.06 0.08 0.07 0.05 0.05 0.04 0.04 0.03 0.02 0.01 0.01 0.02 0.02 0.02 0.04 0.05 0.02 0.01 0.01 0.02 0.01 0.02 0.02 0.03 0.04 0.05
0.11 0.09 0.08 0.09 0.10 0.11 0.10 0.10 0.11 0.12 0.12 0.12 0.12 0.12 0.10 0.09 0.07 0.06 0.07 0.06 0.04 0.04 0.05 0.06 0.05 0.04 0.03 0.03 0.04 0.04 0.04 0.06 0.07 0.02 0.01 0.01 0.01 0.01 0.01 0.01 0.02 0.03 0.05
0.11 0.11 0.10 0.10 0.09 0.09 0.09 0.09 0.10 0.10 0.10 0.11 0.12 0.12 0.12 0.11 0.09 0.07 0.07 0.07 0.06 0.07 0.08 0.08 0.07 0.05 0.05 0.06 0.08 0.08 0.07 0.08 0.08 0.02 0.01 0.01 0.01 0.01 0.01 0.01 0.02 0.03 0.04
0.07 0.08 0.09 0.08 0.07 0.06 0.07 0.07 0.08 0.09 0.09 0.10 0.10 0.11 0.12 0.12 0.13 0.13 0.11 0.10 0.09 0.09 0.10 0.09 0.07 0.06 0.07 0.08 0.09 0.08 0.06 0.07 0.07 0.03 0.02 0.02 0.01 0.01 0.01 0.02 0.02 0.02 0.03
0.06 0.07 0.07 0.07 0.07 0.07 0.07 0.07 0.07 0.08 0.08 0.09 0.10 0.10 0.11 0.11 0.12 0.14 0.13 0.11 0.09 0.09 0.11 0.10 0.08 0.07 0.06 0.07 0.07 0.06 0.05 0.05 0.05 0.04 0.03 0.02 0.02 0.02 0.02 0.02 0.02 0.02 0.03
0.06 0.07 0.06 0.05 0.06 0.07 0.07 0.07 0.07 0.08 0.08 0.08 0.08 0.08 0.09 0.09 0.09 0.12 0.13 0.10 0.08 0.08 0.09 0.09 0.08 0.07 0.05 0.05 0.05 0.04 0.03 0.03 0.04 0.03 0.02 0.02 0.02 0.02 0.02 0.02 0.02 0.02 0.02
0.06 0.06 0.07 0.06 0.06 0.07 0.07 0.07 0.07 0.07 0.07 0.08 0.08 0.07 0.07 0.07 0.07 0.09 0.12 0.11 0.08 0.06 0.06 0.06 0.06 0.05 0.04 0.04 0.04 0.03 0.02 0.02 0.03 0.03 0.02 0.02 0.02 0.03 0.03 0.03 0.02 0.02 0.02
0.05 0.06 0.07 0.07 0.07 0.08 0.08 0.08 0.07 0.07 0.07 0.07 0.07 0.07 0.06 0.06 0.05 0.07 0.09 0.08 0.05 0.04 0.03 0.04 0.05 0.05 0.04 0.03 0.03 0.02 0.02 0.02 0.02 0.02 0.02 0.02 0.02 0.04 0.04 0.03 0.02 0.02 0.01
0.05 0.06 0.07 0.08 0.08 0.09 0.09 0.09 0.09 0.08 0.07 0.06 0.06 0.06 0.06 0.05 0.04 0.06 0.07 0.06 0.04 0.03 0.03 0.04 0.04 0.04 0.04 0.04 0.03 0.03 0.02 0.02 0.01 0.01 0.02 0.03 0.04 0.05 0.05 0.05 0.03 0.02 0.01
0.06 0.05 0.06 0.07 0.08 0.08 0.08 0.08 0.08 0.08 0.07 0.07 0.06 0.06 0.06 0.05 0.05 0.05 0.06 0.06 0.04 0.03 0.03 0.04 0.04 0.04 0.04 0.04 0.03 0.02 0.02 0.02 0.02 0.02 0.02 0.03 0.04 0.04 0.05 0.06 0.05 0.03 0.02
0.06 0.06 0.06 0.06 0.06 0.07 0.08 0.07 0.07 0.07 0.06 0.06 0.06 0.06 0.06 0.07 0.06 0.06 0.07 0.05 0.04 0.03 0.04 0.04 0.04 0.04 0.04 0.03 0.02 0.02 0.02 0.02 0.03 0.03 0.03 0.04 0.04 0.04 0.04 0.05 0.06 0.05 0.03
0.06 0.07 0.06 0.06 0.06 0.06 0.07 0.06 0.06 0.05 0.06 0.06 0.06 0.06 0.06 0.06 0.05 0.05 0.06 0.05 0.04 0.04 0.04 0.04 0.04 0.04 0.04 0.03 0.02 0.02 0.02 0.02 0.03 0.03 0.03 0.03 0.04 0.04 0.04 0.04 0.05 0.06 0.05
0.07 0.07 0.06 0.05 0.05 0.05 0.06 0.06 0.05 0.04 0.05 0.06 0.06 0.06 0.06 0.05 0.05 0.05 0.05 0.04 0.04 0.04 0.04 0.03 0.03 0.03 0.03 0.03 0.02 0.02 0.02 0.02 0.02 0.02 0.03 0.03 0.03 0.03 0.03 0.03 0.04 0.04 0.05
0.07 0.06 0.05 0.04 0.04 0.04 0.05 0.06 0.06 0.05 0.05 0.05 0.05 0.05 0.05 0.05 0.05 0.05 0.04 0.04 0.03 0.04 0.03 0.03 0.03 0.03 0.03 0.02 0.02 0.02 0.02 0.02 0.01 0.01 0.02 0.02 0.03 0.03 0.03 0.03 0.03 0.03 0.03
0.06 0.05 0.04 0.03 0.03 0.03 0.05 0.06 0.05 0.05 0.05 0.05 0.04 0.04 0.04 0.04 0.04 0.04 0.03 0.03 0.03 0.04 0.03 0.03 0.03 0.02 0.02 0.01 0.01 0.01 0.02 0.02 0.02 0.01 0.01 0.02 0.02 0.03 0.04 0.03 0.02 0.02 0.02
MSLP
1016.97 1017.20 1017.32 1017.38 1017.45 1017.58 1017.79 1018.09 1018.46 1018.85 1019.23 1019.56 1019.82 1020.04 1020.22 1020.39 1020.57 1020.78 1021.02 1021.26 1021.48 1021.67 1021.80 1021.88 1021.91 1021.92 1021.93 1021.96 1022.02 1022.10 1022.19 1022.27 1022.33 1022.36 1022.34 1022.31 1022.25 1022.18 1022.11 1022.04 1021.97 1021.87 1021.76
1016.40 1016.75 1016.97 1017.13 1017.26 1017.43 1017.66 1017.96 1018.32 1018.71 1019.10 1019.46 1019.77 1020.03 1020.26 1020.47 1020.68 1020.91 1021.14 1021.37 1021.58 1021.76 1021.90 1021.99 1022.04 1022.08 1022.10 1022.14 1022.19 1022.24 1022.30 1022.35 1022.37 1022.37 1022.35 1022.31 1022.26 1022.20 1022.14 1022.07 1021.99 1021.89 1021.76
1015.63 1016.11 1016.48 1016.77 1017.02 1017.26 1017.54 1017.87 1018.24 1018.63 1019.03 1019.41 1019.75 1020.05 1020.32 1020.57 1020.80 1021.03 1021.25 1021.46 1021.66 1021.82 1021.96 1022.06 1022.14 1022.19 1022.24 1022.29 1022.34 1022.37 1022.40 1022.41 1022.41 1022.38 1022.34 1022.29 1022.24 1022.19 1022.13 1022.07 1021.98 1021.87 1021.73
1014.72 1015.32 1015.85 1016.30 1016.69 1017.06 1017.42 1017.79 1018.18 1018.58 1018.98 1019.37 1019.73 1020.06 1020.37 1020.64 1020.89 1021.12 1021.33 1021.52 1021.70 1021.84 1021.97 1022.08 1022.18 1022.26 1022.34 1022.40 1022.45 1022.48 1022.49 1022.47 1022.43 1022.37 1022.31 1022.25 1022.19 1022.14 1022.08 1022.02 1021.93 1021.81 1021.65
1013.75 1014.44 1015.10 1015.72 1016.27 1016.77 1017.23 1017.66 1018.08 1018.49 1018.89 1019.28 1019.66 1020.02 1020.34 1020.64 1020.91 1021.14 1021.35 1021.52 1021.67 1021.81 1021.93 1022.05 1022.16 1022.28 1022.38 1022.47 1022.53 1022.56 1022.55 1022.51 1022.44 1022.35 1022.26 1022.18 1022.10 1022.04 1021.98 1021.91 1021.81 1021.67 1021.50
1012.80 1013.53 1014.29 1015.04 1015.74 1016.37 1016.93 1017.43 1017.88 1018.31 1018.71 1019.10 1019.49 1019.86 1020.22 1020.54 1020.83 1021.08 1021.28 1021.45 1021.59 1021.71 1021.83 1021.96 1022.10 1022.24 1022.37 1022.49 1022.57 1022.61 1022.59 1022.53 1022.43 1022.31 1022.19 1022.08 1021.98 1021.90 1021.82 1021.73 1021.62 1021.46 1021.27
1011.94 1012.64 1013.45 1014.28 1015.09 1015.82 1016.48 1017.04 1017.54 1017.98 1018.39 1018.79 1019.19 1019.58 1019.96 1020.32 1020.63 1020.90 1021.12 1021.30 1021.44 1021.57 1021.69 1021.83 1021.99 1022.16 1022.33 1022.47 1022.57 1022.62 1022.61 1022.53 1022.41 1022.26 1022.11 1021.97 1021.84 1021.73 1021.62 1021.51 1021.37 1021.20 1020.98
1011.23 1011.85 1012.63 1013.49 1014.35 1015.16 1015.88 1016.50 1017.03 1017.50 1017.92 1018.34 1018.75 1019.16 1019.58 1019.97 1020.33 1020.63 1020.89 1021.08 1021.24 1021.38 1021.53 1021.69 1021.86 1022.06 1022.25 1022.42 1022.55 1022.61 1022.60 1022.52 1022.38 1022.21 1022.02 1021.85 1021.69 1021.54 1021.40 1021.26 1021.09 1020.89 1020.66
1010.70 1011.18 1011.88 1012.71 1013.58 1014.41 1015.17 1015.83 1016.39 1016.88 1017.33 1017.76 1018.19 1018.64 1019.09 1019.53 1019.93 1020.29 1020.58 1020.82 1021.01 1021.18 1021.34 1021.53 1021.73 1021.95 1022.17 1022.36 1022.50 1022.58 1022.57 1022.49 1022.34 1022.15 1021.94 1021.73 1021.54 1021.36 1021.19 1021.01 1020.82 1020.59 1020.33
1010.37 1010.68 1011.25 1012.00 1012.82 1013.64 1014.41 1015.09 1015.68 1016.19 1016.66 1017.11 1017.57 1018.05 1018.54 1019.02 1019.48 1019.88 1020.23 1020.51 1020.74 1020.95 1021.15 1021.36 1021.58 1021.83 1022.06 1022.27 1022.43 1022.52 1022.52 1022.43 1022.28 1022.08 1021.86 1021.63 1021.41 1021.20 1021.00 1020.79 1020.57 1020.32 1020.03
1010.19 1010.33 1010.75 1011.38 1012.13 1012.90 1013.66 1014.34 1014.94 1015.48 1015.97 1016.45 1016.93 1017.44 1017.96 1018.49 1018.99 1019.44 1019.84 1020.17 1020.45 1020.70 1020.94 1021.17 1021.42 1021.68 1021.93 1022.15 1022.32 1022.41 1022.42 1022.34 1022.19 1021.99 1021.76 1021.52 1021.29 1021.06 1020.84 1020.61 1020.36 1020.08 1019.78
1010.13 1010.11 1010.38 1010.88 1011.52 1012.24 1012.95 1013.63 1014.24 1014.80 1015.31 1015.81 1016.32 1016.85 1017.40 1017.95 1018.49 1018.98 1019.42 1019.80 1020.13 1020.42 1020.69 1020.96 1021.23 1021.50 1021.76 1021.98 1022.15 1022.25 1022.26 1022.19 1022.05 1021.86 1021.63 1021.40 1021.16 1020.92 1020.68 1020.44 1020.17 1019.87 1019.55
1010.12 1009.96 1010.09 1010.46 1011.01 1011.65 1012.33 1012.99 1013.61 1014.18 1014.72 1015.24 1015.77 1016.32 1016.88 1017.44 1017.99 1018.51 1018.99 1019.41 1019.78 1020.11 1020.41 1020.71 1020.99 1021.27 1021.53 1021.75 1021.91 1022.01 1022.03 1021.97 1021.84 1021.66 1021.45 1021.22 1020.99 1020.75 1020.51 1020.25 1019.97 1019.66 1019.32
1010.09 1009.83 1009.84 1010.10 1010.56 1011.13 1011.77 1012.42 1013.05 1013.64 1014.20 1014.75 1015.29 1015.84 1016.41 1016.97 1017.53 1018.06 1018.56 1019.01 1019.41 1019.77 1020.10 1020.42 1020.71 1020.99 1021.24 1021.46 1021.61 1021.70 1021.72 1021.67 1021.55 1021.39 1021.19 1020.97 1020.75 1020.52 1020.27 1020.01 1019.72 1019.40 1019.05
1009.99 1009.66 1009.58 1009.75 1010.12 1010.64 1011.25 1011.90 1012.54 1013.16 1013.76 1014.33 1014.89 1015.45 1016.01 1016.57 1017.12 1017.65 1018.15 1018.62 1019.04 1019.43 1019.78 1020.11 1020.42 1020.69 1020.93 1021.13 1021.27 1021.35 1021.36 1021.31 1021.20 1021.04 1020.86 1020.65 1020.43 1020.20 1019.95 1019.69 1019.39 1019.07 1018.71
1009.78 1009.40 1009.26 1009.36 1009.67 1010.15 1010.75 1011.40 1012.07 1012.73 1013.36 1013.97 1014.55 1015.12 1015.68 1016.23 1016.78 1017.30 1017.81 1018.28 1018.72 1019.12 1019.49 1019.83 1020.14 1020.41 1020.64 1020.81 1020.94 1021.00 1021.00 1020.94 1020.82 1020.67 1020.48 1020.27 1020.05 1019.81 1019.56 1019.28 1018.98 1018.65 1018.29
1009.45 1009.02 1008.84 1008.89 1009.17 1009.63 1010.22 1010.90 1011.61 1012.32 1013.01 1013.66 1014.27 1014.86 1015.43 1015.98 1016.52 1017.04 1017.54 1018.02 1018.46 1018.88 1019.26 1019.61 1019.91 1020.18 1020.39 1020.55 1020.65 1020.69 1020.67 1020.60 1020.47 1020.31 1020.11 1019.89 1019.64 1019.38 1019.10 1018.80 1018.49 1018.14 1017.79
1009.00 1008.56 1008.34 1008.36 1008.61 1009.07 1009.68 1010.39 1011.15 1011.92 1012.67 1013.38 1014.05 1014.67 1015.26 1015.82 1016.35 1016.87 1017.37 1017.85 1018.30 1018.73 1019.12 1019.47 1019.78 1020.03 1020.24 1020.38 1020.47 1020.49 1020.45 1020.36 1020.21 1020.02 1019.80 1019.54 1019.26 1018.96 1018.65 1018.31 1017.96 1017.60 1017.24
1008.49 1008.02 1007.78 1007.79 1008.03 1008.49 1009.12 1009.87 1010.69 1011.53 1012.35 1013.13 1013.85 1014.52 1015.14 1015.71 1016.26 1016.78 1017.28 1017.76 1018.22 1018.65 1019.05 1019.41 1019.72 1019.98 1020.18 1020.32 1020.39 1020.40 1020.35 1020.24 1020.07 1019.85 1019.59 1019.30 1018.97 1018.61 1018.24 1017.85 1017.46 1017.07 1016.68
1007.96 1007.48 1007.23 1007.22 1007.46 1007.92 1008.58 1009.37 1010.25 1011.15 1012.04 1012.88 1013.66 1014.38 1015.04 1015.64 1016.20 1016.73 1017.24 1017.73 1018.19 1018.63 1019.04 1019.41 1019.74 1020.00 1020.21 1020.35 1020.43 1020.44 1020.38 1020.26 1020.07 1019.83 1019.53 1019.19 1018.80 1018.38 1017.94 1017.48 1017.02 1016.58 1016.16
1007.46 1006.97 1006.71 1006.70 1006.94 1007.41 1008.08 1008.90 1009.82 1010.77 1011.72 1012.62 1013.46 1014.23 1014.92 1015.56 1016.14 1016.69 1017.21 1017.70 1018.18 1018.63 1019.05 1019.43 1019.77 1020.05 1020.27 1020.43 1020.53 1020.55 1020.50 1020.38 1020.19 1019.93 1019.60 1019.21 1018.77 1018.28 1017.76 1017.23 1016.70 1016.18 1015.71
1007.03 1006.55 1006.29 1006.27 1006.50 1006.98 1007.65 1008.49 1009.43 1010.42 1011.40 1012.35 1013.23 1014.04 1014.77 1015.44 1016.04 1016.61 1017.14 1017.64 1018.13 1018.59 1019.02 1019.42 1019.78 1020.08 1020.33 1020.51 1020.63 1020.68 1020.66 1020.56 1020.38 1020.11 1019.77 1019.35 1018.86 1018.31 1017.72 1017.11 1016.49 1015.90 1015.34
1006.69 1006.23 1005.97 1005.95 1006.18 1006.64 1007.30 1008.13 1009.07 1010.07 1011.07 1012.04 1012.96 1013.79 1014.56 1015.25 1015.88 1016.46 1017.01 1017.53 1018.02 1018.50 1018.94 1019.36 1019.73 1020.06 1020.33 1020.55 1020.70 1020.78 1020.79 1020.72 1020.57 1020.32 1019.98 1019.55 1019.03 1018.44 1017.79 1017.10 1016.41 1015.72 1015.07
1006.45 1006.00 1005.75 1005.73 1005.94 1006.38 1007.03 1007.83 1008.75 1009.74 1010.74 1011.72 1012.64 1013.50 1014.29 1015.00 1015.66 1016.26 1016.82 1017.36 1017.87 1018.35 1018.81 1019.23 1019.62 1019.97 1020.26 1020.50 1020.68 1020.80 1020.85 1020.82 1020.70 1020.49 1020.17 1019.75 1019.23 1018.62 1017.94 1017.19 1016.42 1015.65 1014.90
1006.26 1005.84 1005.61 1005.58 1005.78 1006.19 1006.80 1007.57 1008.46 1009.42 1010.41 1011.38 1012.31 1013.18 1013.98 1014.72 1015.40 1016.03 1016.62 1017.17 1017.69 1018.18 1018.65 1019.08 1019.47 1019.82 1020.12 1020.38 1020.58 1020.73 1020.81 1020.82 1020.74 1020.57 1020.30 1019.91 1019.41 1018.81 1018.11 1017.34 1016.51 1015.67 1014.83
1006.08 1005.69 1005.48 1005.46 1005.65 1006.04 1006.61 1007.35 1008.20 1009.13 1010.09 1011.05 1011.98 1012.87 1013.69 1014.46 1015.17 1015.82 1016.44 1017.01 1017.54 1018.05 1018.51 1018.94 1019.32 1019.66 1019.96 1020.21 1020.42 1020.58 1020.68 1020.72 1020.68 1020.56 1020.33 1019.99 1019.54 1018.96 1018.28 1017.50 1016.64 1015.74 1014.82
Thickness
5650 5650 5649 5648 5648 5647 5646 5644 5644 5644 5644 5644 5643 5643 5643 5643 5643 5642 5642 5641 5641 5640 5640 5640 5640 5641 5640 5640 5640 5640 5639 5639 5639 5638 5637 5636 5635 5634 5633 5631 5630 5627 5625
5643 5642 5642 5641 5640 5640 5639 5638 5637 5637 5637 5637 5636 5636 5636 5635 5636 5636 5635 5634 5633 5633 5632 5632 5633 5633 5633 5633 5633 5633 5632 5632 5632 5631 5631 5630 5629 5628 5626 5624 5623 5620 5618
5635 5634 5634 5633 5633 5632 5631 5630 5630 5630 5629 5629 5629 5629 5629 5628 5629 5629 5628 5627 5627 5626 5625 5624 5625 5625 5625 5625 5625 5625 5625 5625 5624 5624 5624 5623 5622 5621 5619 5617 5615 5613 5611
5627 5626 5625 5624 5624 5624 5623 5622 5621 5620 5620 5619 5619 5620 5620 5620 5621 5621 5621 5620 5619 5619 5618 5617 5616 5617 5617 5618 5617 5617 5617 5617 5617 5616 5616 5615 5614 5612 5611 5609 5608 5606 5604
5618 5617 5616 5616 5615 5615 5614 5613 5612 5611 5610 5610 5610 5611 5611 5612 5612 5613 5613 5613 5612 5612 5610 5609 5608 5608 5609 5609 5609 5609 5609 5609 5608 5608 5608 5607 5606 5604 5603 5601 5600 5598 5596
5608 5607 5607 5606 5606 5605 5604 5604 5602 5602 5601 5601 5602 5602 5602 5603 5604 5604 5605 5604 5604 5604 5603 5602 5600 5600 5600 5600 5600 5600 5600 5600 5600 5599 5599 5598 5597 5596 5595 5593 5592 5590 5588
5597 5597 5596 5596 5596 5595 5594 5594 5594 5593 5592 5592 5591 5590 5592 5594 5595 5596 5596 5596 5596 5596 5595 5594 5592 5591 5590 5590 5591 5590 5590 5591 5591 5591 5590 5589 5588 5587 5586 5585 5583 5582 5580
5586 5586 5586 5586 5586 5585 5584 5584 5585 5584 5583 5583 5582 5579 5579 5581 5584 5587 5587 5587 5587 5587 5586 5585 5584 5583 5582 5582 5581 5581 5581 5581 5582 5582 5581 5580 5579 5578 5577 5576 5575 5573 5571
5574 5575 5575 5575 5575 5574 5574 5574 5575 5575 5575 5574 5574 5572 5570 5572 5572 5576 5577 5578 5578 5578 5578 5577 5576 5575 5573 5573 5573 5572 5572 5572 5572 5572 5572 5571 5570 5569 5568 5566 5565 5564 5562
5562 5563 5563 5563 5563 5563 5563 5564 5564 5565 5566 5565 5565 5565 5566 5567 5563 5563 5566 5568 5568 5569 5569 5569 5568 5567 5565 5565 5564 5564 5563 5562 5562 5562 5562 5561 5560 5560 5558 5557 5555 5554 5552
5549 5550 5551 5550 5550 5551 5552 5552 5553 5554 5556 5556 5556 5556 5556 5556 5557 5554 5554 5556 5558 5560 5561 5560 5560 5558 5558 5557 5556 5555 5554 5553 5553 5552 5552 5551 5550 5549 5548 5546 5545 5543 5542
5536 5537 5538 5538 5538 5539 5540 5541 5543 5544 5545 5546 5547 5548 5548 5548 5548 5548 5546 5547 5548 5551 5552 5552 5551 5551 5550 5548 5547 5546 5545 5544 5544 5543 5542 5540 5539 5538 5537 5535 5534 5532 5531
5524 5525 5526 5527 5527 5528 5529 5531 5532 5534 5535 5537 5538 5540 5540 5542 5542 5541 5540 5539 5540 5541 5542 5542 5543 5542 5541 5540 5537 5536 5535 5535 5533 5532 5531 5530 5528 5527 5525 5524 5522 5521 5520
5513 5514 5515 5516 5516 5517 5519 5521 5523 5525 5527 5528 5530 5531 5532 5533 5533 5533 5533 5531 5530 5530 5531 5532 5533 5533 5532 5530 5528 5527 5526 5525 5523 5522 5521 5519 5517 5516 5514 5513 5511 5510 5509
5503 5504 5505 5504 5506 5508 5510 5511 5513 5515 5518 5520 5522 5523 5524 5525 5524 5525 5525 5524 5523 5522 5522 5523 5522 5522 5521 5520 5518 5517 5516 5515 5512 5511 5509 5508 5506 5504 5502 5500 5499 5498 5497
5494 5494 5495 5495 5497 5498 5500 5502 5504 5506 5508 5510 5513 5515 5515 5516 5515 5516 5516 5516 5516 5515 5512 5514 5513 5512 5510 5509 5508 5507 5505 5504 5502 5500 5498 5497 5495 5493 5491 5489 5487 5486 5485
5484 5485 5485 5486 5487 5489 5491 5493 5495 5496 5498 5501 5503 5505 5506 5507 5507 5507 5507 5506 5507 5505 5503 5503 5502 5501 5499 5499 5498 5497 5495 5493 5492 5490 5488 5486 5484 5482 5480 5478 5477 5476 5475
5474 5475 5476 5477 5479 5480 5482 5484 5486 5488 5490 5492 5494 5496 5497 5498 5498 5497 5497 5497 5497 5496 5494 5492 5492 5490 5489 5488 5487 5485 5484 5482 5481 5480 5478 5476 5474 5471 5469 5468 5466 5465 5464
5465 5466 5467 5469 5470 5471 5473 5476 5477 5479 5481 5483 5485 5487 5488 5488 5488 5487 5488 5488 5487 5487 5485 5484 5483 5480 5478 5477 5475 5474 5472 5470 5469 5468 5466 5465 5463 5461 5459 5457 5456 5455 5454
5456 5457 5458 5460 5461 5463 5465 5467 5469 5470 5472 5473 5475 5477 5478 5478 5478 5478 5478 5478 5478 5476 5475 5474 5473 5471 5468 5466 5463 5461 5461 5459 5458 5457 5456 5454 5453 5450 5448 5447 5447 5445 5445
5448 5449 5450 5451 5452 5455 5457 5459 5460 5462 5463 5464 5465 5467 5468 5469 5470 5470 5470 5469 5468 5466 5465 5464 5463 5461 5459 5455 5453 5451 5450 5448 5448 5446 5446 5445 5443 5440 5438 5437 5436 5436 5436
5440 5441 5442 5442 5444 5447 5450 5452 5453 5453 5455 5456 5456 5457 5458 5459 5460 5461 5461 5460 5460 5458 5455 5454 5452 5450 5448 5445 5443 5442 5439 5438 5438 5437 5434 5433 5431 5430 5429 5428 5427 5427 5428
5433 5434 5434 5436 5437 5438 5441 5444 5445 5445 5445 5447 5448 5449 5449 5450 5450 5451 5451 5451 5450 5449 5448 5445 5443 5441 5439 5437 5436 5434 5431 5428 5426 5424 5422 5423 5421 5419 5419 5418 5418 5419 5420
5426 5427 5427 5428 5429 5430 5433 5435 5436 5436 5436 5438 5439 5439 5439 5440 5441 5442 5442 5441 5439 5439 5438 5437 5436 5434 5432 5430 5428 5426 5423 5420 5419 5416 5412 5411 5412 5411 5412 5411 5412 5412 5412
5418 5419 5419 5420 5421 5422 5425 5427 5428 5427 5428 5428 5429 5430 5431 5432 5433 5433 5433 5432 5430 5429 5428 5428 5428 5426 5425 5422 5420 5417 5414 5412 5410 5408 5404 5402 5403 5403 5405 5405 5404 5404 5403
5409 5410 5411 5411 5411 5413 5416 5418 5419 5420 5421 5421 5421 5422 5423 5424 5424 5424 5423 5422 5421 5420 5419 5419 5418 5417 5415 5414 5412 5409 5407 5404 5401 5399 5397 5394 5393 5393 5395 5398 5397 5396 5395